• In Deutschland
  • Länderverzeichnis
  • Für 7 Tage
  • Wassertemperatur
  • Satellitenkarten
  • Wetterkarte
  • Widgets
  • user-avatar
    Anmelden

    Stündliche Wetter Wernigerode

    Heute, 20 Juli, Freitag

    Zeit Temperatur Niederschläge Wind Luftdruck Luftfeuchtigkeit
    00:00 +16°C° 0 mm 1 m/S 739 mmHg 74%
    01:00 +15°C° 0 mm 1 m/S 739 mmHg 77%
    02:00 +15°C° 0 mm 1 m/S 739 mmHg 79%
    03:00 +14°C° 0 mm 1 m/S 739 mmHg 81%
    04:00 +14°C° 0 mm 1 m/S 739 mmHg 83%
    05:00 +16°C° 0 mm 1 m/S 739 mmHg 78%
    06:00 +18°C° 0 mm 1 m/S 739 mmHg 73%
    07:00 +20°C° 0 mm 1 m/S 739 mmHg 69%
    08:00 +22°C° 0 mm 1 m/S 739 mmHg 63%
    09:00 +23°C° 0 mm 1 m/S 739 mmHg 58%
    10:00 +25°C° 0 mm 1 m/S 739 mmHg 53%
    11:00 +26°C° 0 mm 1 m/S 739 mmHg 50%
    12:00 +26°C° 0 mm 1 m/S 738 mmHg 47%
    13:00 +27°C° 0 mm 1 m/S 738 mmHg 44%
    14:00 +27°C° 0 mm 1 m/S 738 mmHg 44%
    15:00 +27°C° 0 mm 1 m/S 737 mmHg 44%
    16:00 +27°C° 0 mm 1 m/S 737 mmHg 45%
    17:00 +26°C° 0 mm 1 m/S 737 mmHg 49%
    18:00 +25°C° 0 mm 1 m/S 737 mmHg 54%
    19:00 +24°C° 0 mm 2 m/S 737 mmHg 59%
    20:00 +23°C° 0 mm 2 m/S 737 mmHg 63%
    21:00 +20°C° 0 mm 2 m/S 737 mmHg 68%
    22:00 +18°C° 0 mm 2 m/S 737 mmHg 72%
    23:00 +18°C° 0 mm 2 m/S 737 mmHg 74%

    Morgen, 21 Juli, Samstag

    Zeit Temperatur Niederschläge Wind Luftdruck Luftfeuchtigkeit
    00:00 +17°C° 0 mm 2 m/S 736 mmHg 76%
    01:00 +16°C° 0 mm 2 m/S 736 mmHg 78%
    02:00 +16°C° 0 mm 2 m/S 736 mmHg 79%
    03:00 +16°C° 0 mm 2 m/S 736 mmHg 80%
    04:00 +15°C° 0 mm 2 m/S 736 mmHg 80%
    05:00 +17°C° 0 mm 2 m/S 736 mmHg 76%
    06:00 +18°C° 0 mm 2 m/S 736 mmHg 72%
    07:00 +19°C° 0 mm 2 m/S 736 mmHg 68%
    08:00 +21°C° 0 mm 2 m/S 736 mmHg 63%
    09:00 +24°C° 0 mm 3 m/S 736 mmHg 58%
    10:00 +26°C° 0 mm 3 m/S 737 mmHg 52%
    11:00 +26°C° 0,1 mm 3 m/S 736 mmHg 50%
    12:00 +27°C° 0,1 mm 3 m/S 736 mmHg 48%
    13:00 +28°C° 0,1 mm 3 m/S 736 mmHg 45%
    14:00 +28°C° 0,1 mm 3 m/S 736 mmHg 45%
    15:00 +28°C° 0,1 mm 2 m/S 736 mmHg 45%
    16:00 +28°C° 0,1 mm 2 m/S 736 mmHg 45%
    17:00 +27°C° 0,1 mm 2 m/S 736 mmHg 50%
    18:00 +26°C° 0,1 mm 2 m/S 736 mmHg 54%
    19:00 +25°C° 0,1 mm 2 m/S 736 mmHg 58%
    20:00 +24°C° 0 mm 2 m/S 736 mmHg 59%
    21:00 +23°C° 0 mm 2 m/S 736 mmHg 59%
    22:00 +21°C° 0 mm 1 m/S 736 mmHg 60%
    23:00 +21°C° 0 mm 1 m/S 736 mmHg 62%

    übermorgen, 22 Juli, Sonntag

    Zeit Temperatur Niederschläge Wind Luftdruck Luftfeuchtigkeit
    00:00 +20°C° 0 mm 1 m/S 736 mmHg 64%
    01:00 +19°C° 0 mm 1 m/S 736 mmHg 66%
    02:00 +18°C° 0 mm 1 m/S 736 mmHg 66%
    03:00 +18°C° 0 mm 1 m/S 736 mmHg 67%
    04:00 +16°C° 0 mm 1 m/S 736 mmHg 67%
    05:00 +19°C° 0 mm 1 m/S 736 mmHg 64%
    06:00 +20°C° 0 mm 1 m/S 736 mmHg 62%
    07:00 +22°C° 0 mm 1 m/S 736 mmHg 59%
    08:00 +23°C° 0 mm 1 m/S 736 mmHg 54%
    09:00 +25°C° 0 mm 1 m/S 736 mmHg 48%
    10:00 +27°C° 0 mm 1 m/S 736 mmHg 43%
    11:00 +28°C° 0 mm 1 m/S 736 mmHg 41%
    12:00 +28°C° 0 mm 2 m/S 736 mmHg 38%
    13:00 +29°C° 0 mm 2 m/S 736 mmHg 36%
    14:00 +29°C° 0 mm 2 m/S 736 mmHg 37%
    15:00 +29°C° 0 mm 2 m/S 736 mmHg 38%
    16:00 +29°C° 0 mm 2 m/S 736 mmHg 38%
    17:00 +28°C° 0 mm 1 m/S 736 mmHg 44%
    18:00 +27°C° 0 mm 1 m/S 736 mmHg 49%
    19:00 +26°C° 0 mm 1 m/S 736 mmHg 54%
    20:00 +24°C° 0 mm 1 m/S 736 mmHg 58%
    21:00 +22°C° 0 mm 1 m/S 737 mmHg 61%
    22:00 +21°C° 0 mm 1 m/S 737 mmHg 65%
    23:00 +19°C° 0 mm 2 m/S 737 mmHg 68%

    23 Juli, Montag

    Zeit Temperatur Niederschläge Wind Luftdruck Luftfeuchtigkeit
    00:00 +18°C° 0 mm 2 m/S 737 mmHg 71%
    01:00 +17°C° 0 mm 2 m/S 737 mmHg 75%
    02:00 +17°C° 0 mm 2 m/S 737 mmHg 77%
    03:00 +16°C° 0 mm 2 m/S 737 mmHg 80%
    04:00 +15°C° 0 mm 2 m/S 737 mmHg 82%
    05:00 +16°C° 0 mm 2 m/S 737 mmHg 80%
    06:00 +17°C° 0 mm 2 m/S 738 mmHg 77%
    07:00 +18°C° 0 mm 2 m/S 738 mmHg 74%
    08:00 +20°C° 0 mm 3 m/S 738 mmHg 67%
    09:00 +21°C° 0 mm 3 m/S 738 mmHg 61%
    10:00 +24°C° 0 mm 3 m/S 738 mmHg 55%
    11:00 +25°C° 0 mm 3 m/S 738 mmHg 51%
    12:00 +26°C° 0 mm 3 m/S 738 mmHg 47%
    13:00 +27°C° 0 mm 3 m/S 738 mmHg 43%
    14:00 +27°C° 0 mm 3 m/S 738 mmHg 43%
    15:00 +28°C° 0 mm 3 m/S 738 mmHg 43%
    16:00 +28°C° 0 mm 3 m/S 738 mmHg 42%
    17:00 +27°C° 0 mm 3 m/S 738 mmHg 48%
    18:00 +26°C° 0 mm 3 m/S 738 mmHg 53%
    19:00 +25°C° 0 mm 2 m/S 738 mmHg 59%
    20:00 +23°C° 0 mm 2 m/S 738 mmHg 65%
    21:00 +20°C° 0 mm 2 m/S 738 mmHg 71%
    22:00 +20°C° 0 mm 1 m/S 738 mmHg 77%
    23:00 +19°C° 0 mm 1 m/S 738 mmHg 80%

    24 Juli, Dienstag

    Zeit Temperatur Niederschläge Wind Luftdruck Luftfeuchtigkeit
    00:00 +19°C° 0 mm 1 m/S 738 mmHg 83%
    01:00 +18°C° 0 mm 1 m/S 738 mmHg 86%
    02:00 +18°C° 0 mm 1 m/S 738 mmHg 87%
    03:00 +16°C° 0 mm 1 m/S 737 mmHg 88%
    04:00 +15°C° 0 mm 0 m/S 737 mmHg 90%
    05:00 +17°C° 0 mm 0 m/S 737 mmHg 84%
    06:00 +18°C° 0 mm 0 m/S 738 mmHg 79%
    07:00 +19°C° 0 mm 0 m/S 738 mmHg 74%
    08:00 +21°C° 0 mm 0 m/S 738 mmHg 68%
    09:00 +23°C° 0 mm 0 m/S 738 mmHg 62%
    10:00 +25°C° 0 mm 0 m/S 738 mmHg 56%
    11:00 +25°C° 0 mm 0 m/S 737 mmHg 54%
    12:00 +26°C° 0 mm 0 m/S 737 mmHg 51%
    13:00 +27°C° 0 mm 0 m/S 737 mmHg 49%
    14:00 +27°C° 0,1 mm 0 m/S 737 mmHg 49%
    15:00 +26°C° 0,1 mm 0 m/S 736 mmHg 49%
    16:00 +26°C° 0,1 mm 0 m/S 736 mmHg 49%
    17:00 +27°C° 0,1 mm 1 m/S 736 mmHg 54%
    18:00 +27°C° 0,1 mm 1 m/S 736 mmHg 58%
    19:00 +26°C° 0,1 mm 1 m/S 736 mmHg 63%
    20:00 +25°C° 0 mm 1 m/S 736 mmHg 65%
    21:00 +23°C° 0 mm 1 m/S 736 mmHg 68%
    22:00 +22°C° 0 mm 1 m/S 736 mmHg 71%
    23:00 +22°C° 0 mm 1 m/S 736 mmHg 73%

    25 Juli, Mittwoch

    Zeit Temperatur Niederschläge Wind Luftdruck Luftfeuchtigkeit
    00:00 +21°C° 0 mm 1 m/S 736 mmHg 75%
    01:00 +21°C° 0 mm 1 m/S 736 mmHg 77%
    02:00 +20°C° 0 mm 1 m/S 736 mmHg 79%
    03:00 +20°C° 0 mm 1 m/S 736 mmHg 81%
    04:00 +19°C° 0 mm 1 m/S 736 mmHg 83%
    05:00 +21°C° 0 mm 1 m/S 737 mmHg 78%
    06:00 +22°C° 0 mm 1 m/S 737 mmHg 73%
    07:00 +24°C° 0 mm 1 m/S 737 mmHg 69%
    08:00 +25°C° 0,1 mm 1 m/S 737 mmHg 63%
    09:00 +27°C° 0,1 mm 1 m/S 737 mmHg 57%
    10:00 +28°C° 0,1 mm 1 m/S 737 mmHg 51%
    11:00 +29°C° 0,2 mm 1 m/S 737 mmHg 49%
    12:00 +30°C° 0,2 mm 1 m/S 737 mmHg 47%
    13:00 +30°C° 0,2 mm 1 m/S 737 mmHg 44%
    14:00 +30°C° 0 mm 1 m/S 737 mmHg 44%
    15:00 +30°C° 0 mm 1 m/S 737 mmHg 44%
    16:00 +30°C° 0 mm 1 m/S 737 mmHg 44%
    17:00 +29°C° 0 mm 1 m/S 737 mmHg 48%
    18:00 +28°C° 0 mm 1 m/S 737 mmHg 52%
    19:00 +27°C° 0 mm 1 m/S 737 mmHg 57%
    20:00 +26°C° 0,1 mm 1 m/S 737 mmHg 60%
    21:00 +24°C° 0,1 mm 1 m/S 737 mmHg 64%
    22:00 +23°C° 0,1 mm 1 m/S 737 mmHg 68%
    23:00 +22°C° 0,4 mm 1 m/S 737 mmHg 72%
    Mehr zeigen